TimeCST,TemperatureF,Dew PointF,Humidity,Sea Level PressureIn,VisibilityMPH,Wind Direction,Wind SpeedMPH,Gust SpeedMPH,PrecipitationIn,Events,Conditions,WindDirDegrees,DateUTC
12:26 AM,24.8,19.4,80,30.27,-9999.0,North,16.1,-,N/A,,Unknown,10,2013-01-03 06:26:00
12:52 AM,21.0,16.0,81,30.34,-9999.0,North,20.7,-,N/A,,Unknown,10,2013-01-03 06:52:00
1:52 AM,18.0,12.9,81,30.37,-9999.0,North,11.5,-,N/A,,Unknown,350,2013-01-03 07:52:00
2:52 AM,19.0,12.9,77,30.39,-9999.0,NNW,8.1,-,N/A,,Unknown,330,2013-01-03 08:52:00
3:52 AM,19.0,12.9,77,30.38,-9999.0,NW,4.6,-,N/A,,Unknown,320,2013-01-03 09:52:00
4:52 AM,19.9,14.0,78,30.37,-9999.0,NW,6.9,-,N/A,,Unknown,310,2013-01-03 10:52:00
5:52 AM,19.9,15.1,81,30.39,-9999.0,NW,9.2,-,N/A,,Unknown,310,2013-01-03 11:52:00
6:52 AM,21.0,16.0,81,30.39,-9999.0,WNW,4.6,-,N/A,,Unknown,300,2013-01-03 12:52:00
7:52 AM,19.9,17.1,89,30.38,-9999.0,West,6.9,-,N/A,,Unknown,260,2013-01-03 13:52:00
8:52 AM,16.0,12.0,84,30.38,-9999.0,West,8.1,-,N/A,,Unknown,260,2013-01-03 14:52:00
9:52 AM,18.0,12.0,78,30.38,-9999.0,WSW,9.2,-,N/A,,Unknown,250,2013-01-03 15:52:00
10:52 AM,21.0,12.9,71,30.39,-9999.0,West,5.8,-,N/A,,Unknown,280,2013-01-03 16:52:00
11:52 AM,24.1,15.1,69,30.36,-9999.0,West,4.6,-,N/A,,Unknown,270,2013-01-03 17:52:00
12:52 PM,25.0,16.0,69,30.33,-9999.0,WSW,12.7,-,N/A,,Unknown,250,2013-01-03 18:52:00
1:52 PM,27.0,17.1,66,30.30,-9999.0,WSW,12.7,-,N/A,,Unknown,240,2013-01-03 19:52:00
2:52 PM,27.0,17.1,66,30.29,-9999.0,West,10.4,-,N/A,,Unknown,260,2013-01-03 20:52:00
3:52 PM,26.1,17.1,69,30.30,-9999.0,West,6.9,-,N/A,,Unknown,260,2013-01-03 21:52:00
4:52 PM,24.1,15.1,69,30.29,-9999.0,WSW,5.8,-,N/A,,Unknown,250,2013-01-03 22:52:00
5:52 PM,18.0,12.0,78,30.30,-9999.0,SSW,3.5,-,N/A,,Unknown,210,2013-01-03 23:52:00
6:52 PM,16.0,10.0,77,30.29,-9999.0,SW,8.1,-,N/A,,Unknown,220,2013-01-04 00:52:00
7:52 PM,16.0,10.0,77,30.28,-9999.0,SW,6.9,-,N/A,,Unknown,230,2013-01-04 01:52:00
8:52 PM,17.1,10.0,74,30.27,-9999.0,West,12.7,-,N/A,,Unknown,260,2013-01-04 02:52:00
9:52 PM,17.1,10.0,74,30.25,-9999.0,SW,6.9,-,N/A,,Unknown,220,2013-01-04 03:52:00
10:52 PM,15.1,10.0,80,30.24,-9999.0,WSW,10.4,-,N/A,,Unknown,250,2013-01-04 04:52:00
11:52 PM,12.9,7.0,77,30.22,-9999.0,WSW,8.1,-,N/A,,Unknown,240,2013-01-04 05:52:00